• en France
  • Liste des pays
  • À 7 jours
  • Température de l'eau
  • Carte satellitaire
  • Carte météo
  • Widgets météo
  • user-avatar
    Se connecter

    Météo par heure à Hadiyal

    Ce jour, 22 Août, Mercredi

    Heure Température Précipitation Vent Pression Humidité
    00:00 +10°C° 0 mm 2 m/s 611 mmHg 63%
    01:00 +10°C° 0 mm 2 m/s 611 mmHg 62%
    02:00 +10°C° 0 mm 2 m/s 610 mmHg 61%
    03:00 +10°C° 0 mm 2 m/s 610 mmHg 61%
    04:00 +10°C° 0 mm 2 m/s 611 mmHg 61%
    05:00 +12°C° 0 mm 1 m/s 611 mmHg 61%
    06:00 +12°C° 0 mm 1 m/s 611 mmHg 61%
    07:00 +14°C° 0,1 mm 1 m/s 612 mmHg 57%
    08:00 +16°C° 0,1 mm 1 m/s 612 mmHg 53%
    09:00 +18°C° 0,1 mm 1 m/s 613 mmHg 49%
    10:00 +19°C° 0,1 mm 1 m/s 613 mmHg 48%
    11:00 +20°C° 0,1 mm 1 m/s 613 mmHg 47%
    12:00 +20°C° 0,1 mm 2 m/s 614 mmHg 46%
    13:00 +20°C° 0,1 mm 2 m/s 613 mmHg 47%
    14:00 +20°C° 0,1 mm 2 m/s 613 mmHg 49%
    15:00 +21°C° 0,1 mm 2 m/s 613 mmHg 50%
    16:00 +19°C° 0,3 mm 2 m/s 613 mmHg 57%
    17:00 +19°C° 0,3 mm 1 m/s 613 mmHg 63%
    18:00 +18°C° 0,3 mm 1 m/s 612 mmHg 69%
    19:00 +16°C° 0,1 mm 1 m/s 612 mmHg 73%
    20:00 +15°C° 0,1 mm 1 m/s 612 mmHg 76%
    21:00 +14°C° 0,1 mm 1 m/s 612 mmHg 79%
    22:00 +14°C° 0,1 mm 1 m/s 612 mmHg 80%
    23:00 +13°C° 0,1 mm 1 m/s 612 mmHg 80%

    Demain, 23 Août, Jeudi

    Heure Température Précipitation Vent Pression Humidité
    00:00 +13°C° 0,1 mm 1 m/s 612 mmHg 81%
    01:00 +12°C° 0 mm 1 m/s 611 mmHg 81%
    02:00 +12°C° 0 mm 1 m/s 611 mmHg 81%
    03:00 +12°C° 0 mm 1 m/s 611 mmHg 81%
    04:00 +12°C° 0 mm 1 m/s 611 mmHg 80%
    05:00 +12°C° 0 mm 1 m/s 612 mmHg 79%
    06:00 +13°C° 0 mm 1 m/s 612 mmHg 78%
    07:00 +14°C° 0 mm 1 m/s 613 mmHg 71%
    08:00 +16°C° 0 mm 1 m/s 614 mmHg 64%
    09:00 +19°C° 0 mm 1 m/s 614 mmHg 57%
    10:00 +20°C° 0,1 mm 1 m/s 615 mmHg 55%
    11:00 +19°C° 0,1 mm 2 m/s 615 mmHg 54%
    12:00 +20°C° 0,1 mm 2 m/s 615 mmHg 53%
    13:00 +20°C° 0,1 mm 2 m/s 615 mmHg 54%
    14:00 +20°C° 0,1 mm 2 m/s 614 mmHg 55%
    15:00 +20°C° 0,1 mm 2 m/s 614 mmHg 56%
    16:00 +20°C° 0 mm 1 m/s 614 mmHg 60%
    17:00 +19°C° 0 mm 1 m/s 614 mmHg 63%
    18:00 +18°C° 0 mm 1 m/s 614 mmHg 66%
    19:00 +16°C° 0 mm 1 m/s 613 mmHg 70%
    20:00 +14°C° 0 mm 1 m/s 613 mmHg 73%
    21:00 +13°C° 0 mm 1 m/s 613 mmHg 76%
    22:00 +13°C° 0 mm 1 m/s 613 mmHg 77%
    23:00 +12°C° 0 mm 1 m/s 613 mmHg 77%

    Après-demain, 24 Août, Vendredi

    Heure Température Précipitation Vent Pression Humidité
    00:00 +12°C° 0 mm 1 m/s 613 mmHg 77%
    01:00 +12°C° 0 mm 1 m/s 613 mmHg 76%
    02:00 +11°C° 0 mm 1 m/s 612 mmHg 75%
    03:00 +10°C° 0 mm 2 m/s 612 mmHg 75%
    04:00 +12°C° 0 mm 2 m/s 613 mmHg 74%
    05:00 +12°C° 0 mm 2 m/s 613 mmHg 74%
    06:00 +12°C° 0 mm 2 m/s 613 mmHg 73%
    07:00 +14°C° 0 mm 2 m/s 614 mmHg 66%
    08:00 +16°C° 0 mm 2 m/s 615 mmHg 59%
    09:00 +19°C° 0 mm 2 m/s 615 mmHg 52%
    10:00 +19°C° 0 mm 2 m/s 615 mmHg 51%
    11:00 +20°C° 0 mm 2 m/s 616 mmHg 50%
    12:00 +21°C° 0 mm 3 m/s 616 mmHg 49%
    13:00 +21°C° 0,1 mm 3 m/s 615 mmHg 50%
    14:00 +21°C° 0,1 mm 3 m/s 615 mmHg 51%
    15:00 +21°C° 0,1 mm 3 m/s 615 mmHg 52%
    16:00 +20°C° 0,1 mm 2 m/s 614 mmHg 56%
    17:00 +19°C° 0,1 mm 2 m/s 614 mmHg 61%
    18:00 +19°C° 0,1 mm 1 m/s 613 mmHg 66%
    19:00 +16°C° 0 mm 1 m/s 613 mmHg 67%
    20:00 +15°C° 0 mm 2 m/s 613 mmHg 67%
    21:00 +13°C° 0 mm 2 m/s 612 mmHg 68%
    22:00 +13°C° 0 mm 2 m/s 612 mmHg 68%
    23:00 +13°C° 0 mm 2 m/s 612 mmHg 67%

    25 Août, Samedi

    Heure Température Précipitation Vent Pression Humidité
    00:00 +12°C° 0 mm 2 m/s 612 mmHg 67%
    01:00 +12°C° 0 mm 2 m/s 611 mmHg 68%
    02:00 +12°C° 0 mm 2 m/s 611 mmHg 70%
    03:00 +12°C° 0 mm 2 m/s 611 mmHg 72%
    04:00 +12°C° 0 mm 2 m/s 611 mmHg 72%
    05:00 +12°C° 0 mm 2 m/s 611 mmHg 73%
    06:00 +13°C° 0 mm 1 m/s 611 mmHg 73%
    07:00 +15°C° 0 mm 1 m/s 612 mmHg 66%
    08:00 +18°C° 0 mm 1 m/s 613 mmHg 59%
    09:00 +21°C° 0 mm 1 m/s 614 mmHg 52%
    10:00 +21°C° 0,1 mm 2 m/s 614 mmHg 51%
    11:00 +21°C° 0,1 mm 2 m/s 614 mmHg 50%
    12:00 +23°C° 0,1 mm 2 m/s 614 mmHg 48%
    13:00 +23°C° 0,4 mm 2 m/s 613 mmHg 49%
    14:00 +23°C° 0,4 mm 2 m/s 613 mmHg 50%
    15:00 +23°C° 0,4 mm 2 m/s 613 mmHg 51%
    16:00 +21°C° 0,1 mm 2 m/s 612 mmHg 55%
    17:00 +21°C° 0,1 mm 1 m/s 612 mmHg 60%
    18:00 +20°C° 0,1 mm 1 m/s 612 mmHg 65%
    19:00 +18°C° 0 mm 1 m/s 611 mmHg 68%
    20:00 +16°C° 0 mm 1 m/s 611 mmHg 71%
    21:00 +14°C° 0 mm 1 m/s 611 mmHg 74%
    22:00 +14°C° 0 mm 1 m/s 610 mmHg 73%
    23:00 +13°C° 0 mm 1 m/s 610 mmHg 72%

    26 Août, Dimanche

    Heure Température Précipitation Vent Pression Humidité
    00:00 +13°C° 0 mm 1 m/s 610 mmHg 71%
    01:00 +13°C° 0 mm 1 m/s 610 mmHg 70%
    02:00 +12°C° 0 mm 1 m/s 609 mmHg 68%
    03:00 +12°C° 0 mm 1 m/s 609 mmHg 66%
    04:00 +12°C° 0 mm 1 m/s 609 mmHg 63%
    05:00 +13°C° 0 mm 1 m/s 610 mmHg 60%
    06:00 +13°C° 0 mm 1 m/s 610 mmHg 56%
    07:00 +15°C° 0 mm 1 m/s 611 mmHg 51%
    08:00 +19°C° 0 mm 1 m/s 612 mmHg 46%
    09:00 +21°C° 0 mm 1 m/s 612 mmHg 41%
    10:00 +21°C° 0 mm 2 m/s 613 mmHg 40%
    11:00 +23°C° 0 mm 2 m/s 613 mmHg 39%
    12:00 +24°C° 0 mm 2 m/s 613 mmHg 39%
    13:00 +24°C° 0 mm 2 m/s 612 mmHg 39%
    14:00 +24°C° 0 mm 2 m/s 612 mmHg 39%
    15:00 +24°C° 0 mm 2 m/s 612 mmHg 40%
    16:00 +23°C° 0 mm 2 m/s 611 mmHg 44%
    17:00 +20°C° 0 mm 2 m/s 611 mmHg 49%
    18:00 +20°C° 0 mm 1 m/s 610 mmHg 54%
    19:00 +18°C° 0 mm 1 m/s 610 mmHg 55%
    20:00 +15°C° 0 mm 1 m/s 610 mmHg 56%
    21:00 +14°C° 0 mm 1 m/s 609 mmHg 57%
    22:00 +14°C° 0 mm 1 m/s 609 mmHg 54%
    23:00 +13°C° 0 mm 2 m/s 609 mmHg 50%

    27 Août, Lundi

    Heure Température Précipitation Vent Pression Humidité
    00:00 +13°C° 0 mm 2 m/s 609 mmHg 46%
    01:00 +13°C° 0 mm 2 m/s 609 mmHg 45%
    02:00 +13°C° 0 mm 1 m/s 609 mmHg 45%
    03:00 +13°C° 0 mm 1 m/s 608 mmHg 44%
    04:00 +13°C° 0 mm 1 m/s 609 mmHg 47%
    05:00 +13°C° 0 mm 1 m/s 609 mmHg 50%
    06:00 +13°C° 0 mm 1 m/s 609 mmHg 53%
    07:00 +16°C° 0 mm 1 m/s 610 mmHg 49%
    08:00 +19°C° 0 mm 1 m/s 611 mmHg 46%
    09:00 +21°C° 0 mm 1 m/s 612 mmHg 43%
    10:00 +21°C° 0 mm 2 m/s 612 mmHg 43%
    11:00 +23°C° 0 mm 2 m/s 612 mmHg 42%
    12:00 +23°C° 0 mm 2 m/s 612 mmHg 42%
    13:00 +23°C° 0,5 mm 2 m/s 612 mmHg 44%
    14:00 +23°C° 0,5 mm 2 m/s 612 mmHg 45%
    15:00 +23°C° 0,5 mm 2 m/s 611 mmHg 47%
    16:00 +20°C° 0,3 mm 2 m/s 611 mmHg 52%
    17:00 +20°C° 0,3 mm 1 m/s 611 mmHg 56%
    18:00 +19°C° 0,3 mm 1 m/s 611 mmHg 61%
    19:00 +16°C° 0,1 mm 1 m/s 610 mmHg 65%
    20:00 +15°C° 0,1 mm 1 m/s 610 mmHg 69%
    21:00 +13°C° 0,1 mm 1 m/s 610 mmHg 73%
    22:00 +13°C° 0 mm 1 m/s 610 mmHg 72%
    23:00 +13°C° 0 mm 1 m/s 610 mmHg 71%
    Voir plus